{"data":{"norad_id":52999,"intl_designator":"2022-076P","name":"STARLINK-4217","alt_names":[],"object_type":"PAYLOAD","status":"ACTIVE","operator":null,"country":"US","launch_date":"2022-07-07","launch_site_code":"AFETR","launch_vehicle":null,"mission":null,"orbit_class":"UNKNOWN","rcs_meters":null,"size_class":null,"mass_kg":null,"dimensions":null,"purposes":["comms"],"wikipedia_slug":null,"has_3d_model":false,"image_url":null,"decayed_at":null,"tle_current":{"epoch":"2026-05-25T04:22:00.474816Z","epoch_age_seconds":70051,"freshness":"FRESH","line1":"1 52999U 22076P   26145.18194994  .00001254  00000+0  96833-4 0  9998","line2":"2 52999  53.2157 110.7318 0001408  84.0207 276.0945 15.08843951214390","mean_motion":15.08843951,"eccentricity":0.0001408,"inclination_deg":53.2157,"raan_deg":110.7318,"arg_perigee_deg":84.0207,"mean_anomaly_deg":276.0945,"bstar":9.6833e-5,"rev_number":21439,"period_min":95.437304768702,"perigee_km":538.7572765057,"apogee_km":540.70534822246,"semimajor_km":6917.8683123641,"source":"CELESTRAK","updated_at":"2026-05-25T13:38:17.275850Z"}}}